Date,TemperatureHighF,TemperatureAvgF,TemperatureLowF,DewpointHighF,DewpointAvgF,DewpointLowF,HumidityHigh,HumidityAvg,HumidityLow,PressureMaxIn,PressureMinIn,WindSpeedMaxMPH,WindSpeedAvgMPH,GustSpeedMaxMPH,PrecipitationSumIn
2013-1-1,54.0,41.8,32.7,28.4,23.9,19.7,73,52,31,30.24,30.12,12,2,12,0.00
2013-1-2,59.9,42.9,33.4,24.8,21.6,18.0,62,46,22,30.17,30.08,8,2,9,0.00
2013-1-3,62.4,50.2,35.2,24.0,19.9,14.7,53,33,17,30.21,30.09,7,2,10,0.00
2013-1-4,60.6,50.0,34.2,23.5,16.0,10.2,50,29,15,30.30,30.20,6,2,7,0.00
2013-1-5,62.8,45.6,34.5,24.4,19.4,10.8,56,38,14,30.30,30.20,7,2,7,0.00
2013-1-6,53.8,42.6,36.5,35.9,30.7,22.1,79,63,48,30.21,30.02,10,1,10,0.00
2013-1-7,62.8,46.0,33.6,35.4,27.2,20.7,82,53,20,30.09,29.99,28,5,29,0.00
2013-1-8,70.0,57.7,39.0,35.9,32.3,22.7,56,40,25,30.17,30.07,7,1,7,0.00
2013-1-9,70.9,53.5,43.0,39.6,33.8,30.8,67,49,24,30.19,30.02,12,2,12,0.00
2013-1-10,49.5,42.6,34.5,41.4,31.8,19.4,82,66,49,30.06,29.90,21,3,21,0.00
2013-1-11,47.8,37.5,29.5,24.0,20.2,17.4,68,51,33,30.15,30.03,14,3,14,0.00
2013-1-12,49.3,35.8,26.8,20.7,17.4,11.4,71,50,25,30.15,30.04,7,1,8,0.00
2013-1-13,48.9,39.8,28.0,17.3,14.9,8.7,56,38,20,30.15,30.04,8,2,10,0.00
2013-1-14,47.7,34.1,23.2,15.2,7.4,-0.9,59,36,14,30.32,30.14,11,2,11,0.00
2013-1-15,56.5,43.8,29.5,23.6,18.6,8.1,54,38,26,30.42,30.31,6,2,9,0.00
2013-1-16,64.2,42.7,37.0,28.9,23.7,22.0,58,48,24,30.36,30.21,5,1,5,0.00
2013-1-17,69.1,56.6,40.8,27.5,21.5,17.5,45,28,17,30.26,30.15,10,2,10,0.00
2013-1-18,70.3,56.7,40.3,30.2,22.8,17.8,45,29,17,30.23,30.15,10,2,10,0.00
2013-1-19,70.3,49.2,38.7,26.2,20.5,15.9,50,34,15,30.26,30.17,7,2,7,0.00
2013-1-20,44.4,42.8,40.8,20.5,18.1,15.9,41,37,33,30.22,30.18,7,3,7,0.00
2013-1-21,72.7,63.4,43.0,26.2,16.8,11.2,34,18,10,30.18,30.10,6,2,6,0.00
2013-1-22,75.9,57.4,42.6,25.7,18.1,11.9,37,24,11,30.18,30.10,8,2,9,0.00
2013-1-23,75.0,61.0,47.3,43.4,32.5,23.4,54,36,21,30.18,30.11,10,2,11,0.00
2013-1-24,62.2,52.5,48.6,52.3,43.6,36.7,83,72,51,30.25,30.15,4,0,6,0.00
2013-1-25,57.0,53.6,52.3,51.6,47.2,45.3,84,79,72,30.20,30.01,4,0,5,0.00
2013-1-26,62.4,55.0,50.7,51.6,48.7,46.0,85,80,66,30.02,29.94,5,1,8,0.00
2013-1-27,54.7,45.6,37.0,47.5,38.6,30.3,84,76,61,30.05,29.98,20,4,20,0.00
2013-1-28,51.8,41.4,34.9,33.0,29.2,23.7,81,64,37,30.15,30.02,17,5,18,0.00
2013-1-29,53.4,40.7,32.2,36.0,30.9,23.6,77,69,48,30.23,30.15,5,2,6,0.00
2013-1-30,65.3,50.2,38.5,40.0,34.5,30.2,74,57,34,30.35,30.21,10,2,10,0.00
2013-1-31,43.5,43.3,43.0,33.9,33.7,33.6,69,69,68,30.27,30.27,2,1,3,0.00
2013-2-1,73.0,62.6,46.2,38.0,34.7,30.8,58,37,22,30.25,30.16,12,2,12,0.00
2013-2-2,71.2,59.6,49.1,43.4,38.2,34.2,58,46,26,30.25,30.17,7,1,7,0.00
2013-2-3,68.5,56.9,48.7,45.2,42.8,39.7,74,61,38,30.20,30.05,7,1,7,0.00
2013-2-6,45.1,42.6,40.8,37.7,35.7,34.4,79,76,75,30.13,30.11,0,0,0,0.00
2013-2-7,63.0,48.9,37.0,44.2,38.4,31.5,81,68,48,30.15,30.01,0,0,0,0.00
2013-2-8,45.1,37.6,33.1,37.0,32.1,28.4,84,81,72,30.01,29.90,0,0,0,0.00
2013-2-9,48.4,37.8,30.4,37.0,31.1,26.1,84,77,56,30.06,29.92,0,0,0,0.00
2013-2-10,49.3,41.3,31.3,34.7,31.9,25.9,81,70,52,30.10,30.01,0,0,0,0.00
2013-2-11,54.5,44.5,32.9,34.3,23.2,10.1,81,50,19,30.16,30.04,0,0,0,0.00
2013-2-13,37.6,36.6,35.4,23.3,22.9,22.6,60,57,55,30.24,30.23,0,0,0,0.00
2013-2-14,71.2,56.2,40.6,38.7,30.4,23.7,62,41,19,30.23,30.12,0,0,0,0.00
2013-2-15,72.5,55.4,43.0,36.8,27.6,22.5,51,37,18,30.27,30.20,0,0,0,0.00
2013-2-16,48.6,46.0,44.2,22.5,21.3,19.9,41,37,34,30.26,30.04,0,0,0,0.00
2013-2-17,48.9,47.2,46.2,22.9,22.4,21.6,39,38,34,30.04,30.03,0,0,0,0.00
2013-2-18,46.8,46.2,45.1,38.9,38.4,37.0,75,74,73,30.01,30.00,0,0,0,0.00
2013-2-19,48.2,43.0,34.9,38.4,35.8,29.2,82,76,62,29.97,29.72,0,0,0,0.00
2013-2-20,50.2,38.7,33.3,36.1,30.8,28.3,83,75,52,29.86,29.68,0,0,0,0.00
2013-2-24,56.5,43.4,37.8,15.7,13.0,7.1,38,30,15,30.22,30.11,0,0,0,0.00
2013-2-25,40.1,38.5,37.0,16.1,14.9,13.2,41,38,36,30.24,30.21,0,0,0,0.00
2013-2-26,46.8,45.2,43.7,20.4,19.9,18.9,38,36,35,30.16,30.15,0,0,0,0.00
2013-2-28,54.9,52.2,50.4,24.7,23.4,22.5,35,32,31,30.37,30.34,0,0,0,0.00
2013-3-1,78.1,61.3,47.1,36.7,26.6,22.6,47,29,15,30.37,30.24,0,0,0,0.00
2013-3-2,80.8,62.7,49.6,41.0,28.3,19.4,45,30,12,30.31,30.15,0,0,0,0.00
2013-3-3,71.2,58.3,46.8,39.1,32.3,24.7,63,39,24,30.17,30.02,0,0,0,0.00
2013-3-4,57.7,47.8,42.6,44.4,39.3,34.3,78,72,61,30.14,30.04,0,0,0,0.00
2013-3-5,49.3,48.7,48.0,42.1,41.8,41.6,80,77,76,30.13,30.10,0,0,0,0.00
2013-3-6,58.8,49.4,44.2,43.4,40.4,37.7,81,72,50,30.17,30.04,0,0,0,0.00
2013-3-7,52.3,47.0,40.6,43.1,40.3,35.2,81,77,67,30.05,29.89,0,0,0,0.00
2013-3-8,42.8,41.1,37.6,37.3,35.6,32.0,81,81,79,29.89,29.80,0,0,0,0.00
2013-3-13,61.0,57.3,54.1,40.9,35.6,32.7,50,44,42,30.17,30.13,0,0,0,0.00
2013-3-14,58.1,56.8,55.9,38.1,37.2,36.4,51,48,46,30.15,30.14,0,0,0,0.00
2013-3-17,72.1,62.9,48.0,51.0,44.9,40.2,75,53,36,30.03,29.97,0,0,0,0.00
2013-3-18,70.0,54.5,44.8,50.0,44.2,38.0,82,69,47,30.11,30.01,0,0,0,0.00
2013-3-19,62.2,49.8,45.0,49.5,43.2,39.0,82,78,62,30.14,30.07,0,0,0,0.00
2013-3-24,56.3,53.4,51.1,41.7,39.0,35.7,59,58,56,30.02,30.00,0,0,0,0.00
2013-3-25,68.9,52.2,47.3,40.9,35.1,31.6,63,53,32,30.04,29.99,0,0,0,0.00
2013-3-26,75.7,59.3,47.3,48.1,39.3,35.6,66,50,27,30.02,29.94,0,0,0,0.00
2013-3-27,73.0,57.2,45.3,47.1,41.0,37.0,75,57,32,30.09,29.97,0,0,0,0.00
2013-3-28,76.5,58.9,43.7,51.0,42.6,37.3,79,58,27,30.12,30.05,0,0,0,0.00
2013-3-29,79.7,62.0,45.1,50.3,43.3,36.6,73,54,27,30.17,30.08,0,0,0,0.00
2013-3-30,76.1,61.9,49.1,49.6,45.0,41.0,77,57,31,30.17,30.08,0,0,0,0.00
2013-3-31,70.7,55.9,44.4,50.1,44.2,38.3,80,66,45,30.16,30.07,0,0,0,0.00
2013-4-1,65.3,55.1,47.7,45.4,43.5,40.9,79,66,46,30.19,30.09,0,0,0,0.00
2013-4-2,72.3,58.6,48.9,50.5,45.3,40.9,79,63,43,30.12,30.03,0,0,0,0.00
2013-4-3,82.8,62.8,46.2,51.2,43.4,39.4,78,54,22,30.13,30.05,0,0,0,0.00
2013-4-4,78.3,61.4,46.8,50.3,43.7,35.1,75,55,23,30.15,30.06,0,0,0,0.00
2013-4-5,68.2,55.7,46.8,50.7,45.7,39.9,79,70,50,30.13,30.03,0,0,0,0.00
2013-4-6,71.1,58.4,49.8,51.5,47.2,42.9,81,68,46,30.11,30.00,0,0,0,0.00
2013-4-7,71.8,57.6,47.8,51.3,46.4,41.4,81,68,47,30.03,29.87,0,0,0,0.00
2013-4-8,55.9,50.3,43.9,46.9,42.1,36.6,81,74,54,29.88,29.71,0,0,0,0.00
2013-4-9,70.3,54.2,39.4,37.4,29.0,12.8,80,45,12,30.07,29.86,0,0,0,0.00
2013-4-10,80.8,62.1,44.4,30.9,25.6,15.2,57,29,11,30.14,30.01,0,0,0,0.00
2013-4-11,79.5,60.9,45.7,45.0,35.2,27.8,68,41,20,30.08,29.84,0,0,0,0.00
2013-4-12,79.2,60.4,46.2,53.4,45.8,39.1,79,61,36,29.94,29.84,0,0,0,0.00
2013-4-13,74.8,62.6,49.6,55.0,48.3,41.8,78,61,44,29.95,29.87,0,0,0,0.00
2013-4-14,57.4,52.0,48.7,45.9,43.4,41.1,79,73,62,29.93,29.86,0,0,0,0.00
2013-4-15,64.6,53.0,48.4,47.9,43.4,40.0,81,71,53,29.94,29.87,0,0,0,0.00
2013-4-16,62.8,50.1,41.2,40.6,36.5,30.1,74,61,39,30.01,29.90,0,0,0,0.00
2013-4-17,69.6,53.9,38.8,29.7,21.6,10.5,63,33,13,30.18,30.01,0,0,0,0.00
2013-4-18,73.2,55.4,39.6,29.1,18.8,11.2,43,27,11,30.25,30.16,0,0,0,0.00
2013-4-19,81.3,62.3,45.1,32.3,20.9,12.1,36,23,10,30.23,30.04,0,0,0,0.00
2013-4-20,88.0,66.4,47.7,45.6,33.3,24.9,56,33,14,30.08,29.95,0,0,0,0.00
2013-4-21,87.1,66.8,50.5,44.3,38.4,33.6,57,39,16,30.08,30.01,0,0,0,0.00
2013-4-22,80.4,62.6,47.8,49.0,41.8,36.9,72,49,27,30.07,29.93,0,0,0,0.00
2013-4-23,81.7,62.8,48.0,50.9,45.0,40.0,79,57,24,30.01,29.91,0,0,0,0.00
2013-4-24,73.2,57.9,48.4,52.7,46.6,41.4,80,67,45,30.02,29.94,0,0,0,0.00
2013-4-25,66.7,55.5,48.0,46.9,43.3,39.5,77,64,48,30.15,29.99,0,0,0,0.00
2013-4-26,81.0,61.1,43.5,50.5,43.6,37.3,79,56,28,30.21,30.14,0,0,0,0.00
2013-4-27,86.7,67.0,47.8,50.2,43.4,37.1,70,47,23,30.21,30.07,0,0,0,0.00
2013-4-28,88.3,68.9,51.1,52.1,45.1,39.2,69,46,22,30.09,29.94,0,0,0,0.00
2013-4-29,87.8,68.3,51.3,55.3,47.3,38.4,72,50,26,29.97,29.85,0,0,0,0.00
2013-4-30,76.6,60.9,49.3,53.0,47.6,42.7,81,64,38,29.95,29.86,0,0,0,0.00
2013-5-1,85.5,66.4,54.3,52.5,39.6,17.7,75,46,10,30.15,29.94,0,0,0,0.00
2013-5-2,87.3,65.4,51.1,27.3,19.5,10.8,33,19,10,30.22,30.11,0,0,0,0.00
2013-5-3,91.8,70.6,52.9,33.0,22.5,15.2,31,18,10,30.15,29.89,0,0,0,0.00
2013-5-4,84.0,64.6,49.6,45.9,32.3,21.4,73,35,10,29.92,29.80,0,0,0,0.00
2013-5-5,66.7,56.9,50.7,46.4,43.6,42.0,73,62,44,30.00,29.89,0,0,0,0.00
2013-5-6,62.2,54.4,50.7,52.5,46.3,42.9,80,74,62,30.06,29.97,0,0,0,0.00
2013-5-7,65.8,54.9,48.0,47.2,43.8,41.5,80,67,46,30.11,30.03,0,0,0,0.00
2013-5-8,68.2,56.9,49.3,47.8,44.4,40.2,78,63,48,30.14,30.09,0,0,0,0.00
2013-5-9,70.3,57.1,44.2,53.3,45.5,38.1,80,66,46,30.14,30.07,0,0,0,0.00
2013-5-10,83.3,63.6,53.2,54.5,50.6,47.6,82,64,36,30.15,30.07,0,0,0,0.00
2013-5-11,94.6,73.7,54.3,52.1,46.8,35.0,73,45,14,30.16,30.07,0,0,0,0.00
2013-5-12,97.7,77.8,60.3,52.1,43.5,33.5,53,34,12,30.16,30.02,0,0,0,0.00
2013-5-13,98.2,79.0,62.4,50.4,44.3,38.9,50,32,14,30.10,30.00,0,0,0,0.00
2013-5-14,90.1,72.9,55.8,50.6,41.6,31.3,59,36,15,30.07,29.98,0,0,0,0.00
2013-5-15,82.6,65.0,49.6,52.0,45.0,38.4,70,51,24,30.09,30.01,0,0,0,0.00
2013-5-16,77.5,62.4,49.8,53.8,49.1,43.2,80,64,41,30.03,29.94,0,0,0,0.00
2013-5-17,73.4,61.3,54.1,53.5,49.5,47.4,81,67,45,30.05,29.96,0,0,0,0.00
2013-5-18,76.3,63.1,54.1,54.0,49.4,45.7,78,63,42,30.08,30.02,0,0,0,0.00
2013-5-19,83.3,65.9,51.8,54.8,49.8,44.7,77,59,34,30.04,29.95,0,0,0,0.00
2013-5-20,92.5,71.4,52.0,53.1,44.8,33.4,76,46,14,30.02,29.95,0,0,0,0.00
2013-5-21,87.6,70.4,55.0,56.4,46.8,39.5,65,45,23,30.02,29.90,0,0,0,0.00
2013-5-22,81.9,64.4,50.5,54.4,48.1,43.9,81,58,30,29.93,29.83,0,0,0,0.00
2013-5-23,75.0,60.4,53.4,50.4,45.9,43.4,72,60,39,29.99,29.88,0,0,0,0.00
2013-5-24,77.4,62.7,52.5,51.9,46.8,43.3,73,58,36,30.03,29.96,0,0,0,0.00
2013-5-25,76.3,61.2,48.4,49.8,45.3,41.4,78,59,31,30.08,30.01,0,0,0,0.00
2013-5-26,74.8,61.5,51.4,50.7,47.3,43.8,76,61,41,30.08,30.03,0,0,0,0.00
2013-5-27,78.6,62.2,49.6,53.3,48.2,43.1,79,62,37,30.05,29.93,0,0,0,0.00
2013-5-28,73.2,61.7,55.6,54.2,50.2,47.3,78,67,49,29.94,29.84,0,0,0,0.00
2013-5-29,84.7,66.8,50.5,57.3,50.4,43.9,80,59,34,29.88,29.81,0,0,0,0.00
2013-5-30,86.5,69.2,53.6,57.0,51.5,46.1,76,56,34,29.95,29.85,0,0,0,0.00
2013-5-31,89.1,70.3,53.4,58.3,52.9,46.8,80,57,34,29.96,29.90,0,0,0,0.00
2013-6-1,102.0,83.0,57.7,60.3,50.5,34.5,70,38,10,29.94,29.84,0,0,0,0.00
2013-6-2,89.6,72.1,57.0,61.3,54.4,48.7,74,56,35,29.91,29.83,0,0,0,0.00
2013-6-3,84.9,66.8,54.0,55.6,51.4,46.9,80,61,35,29.95,29.86,0,0,0,0.00
2013-6-4,82.2,66.7,56.5,57.1,51.8,47.9,78,61,35,30.03,29.94,0,0,0,0.00
2013-6-5,83.8,66.3,51.6,57.1,49.9,45.3,81,59,28,30.05,29.96,0,0,0,0.00
2013-6-6,86.4,68.3,51.6,57.8,50.5,43.3,77,56,29,30.00,29.93,0,0,0,0.00
2013-6-7,87.6,69.5,51.4,56.9,51.7,45.2,80,57,32,29.97,29.86,0,0,0,0.00
2013-6-8,89.4,64.2,54.0,59.6,51.7,47.4,80,66,34,29.96,29.86,0,0,0,0.00
2013-6-9,90.5,69.0,52.5,58.9,49.5,25.6,81,57,11,29.99,29.93,0,0,0,0.00
2013-6-10,86.4,66.7,50.7,54.1,48.6,40.1,81,57,22,30.01,29.94,0,0,0,0.00
2013-6-11,94.1,72.8,53.4,58.3,48.3,38.6,74,48,16,30.02,29.96,0,0,0,0.00
2013-6-12,84.7,69.7,55.9,60.4,54.0,48.3,79,59,40,30.07,29.98,0,0,0,0.00
2013-6-13,87.8,69.3,53.8,58.2,51.5,47.4,82,57,29,30.07,29.96,0,0,0,0.00
2013-6-14,89.2,68.8,51.1,56.9,49.0,40.1,71,52,27,29.99,29.90,0,0,0,0.00
2013-6-15,86.2,66.4,50.4,54.9,49.2,44.1,81,58,30,30.04,29.94,0,0,0,0.00
2013-6-16,86.7,67.4,47.8,53.5,48.2,39.5,78,54,26,30.08,30.01,0,0,0,0.00
2013-6-17,90.3,71.2,54.1,53.3,49.0,43.7,72,49,22,30.04,29.96,0,0,0,0.00
2013-6-18,89.1,71.4,55.9,56.5,48.8,44.5,67,48,25,29.98,29.91,0,0,0,0.00
2013-6-19,84.7,67.4,51.3,56.9,49.4,42.6,74,55,32,29.94,29.88,0,0,0,0.00
2013-6-20,87.8,69.7,52.5,53.8,47.3,42.9,71,48,22,29.96,29.88,0,0,0,0.00
2013-6-21,86.7,69.4,53.8,52.0,46.2,40.6,69,47,21,29.99,29.90,0,0,0,0.00
2013-6-22,86.7,69.2,52.9,54.8,48.5,41.9,68,50,28,29.98,29.89,0,0,0,0.00
2013-6-23,82.9,66.0,52.5,56.6,50.1,44.5,78,59,35,29.94,29.86,0,0,0,0.00
2013-6-24,76.8,63.6,55.4,55.0,51.2,47.9,80,65,45,30.01,29.89,0,0,0,0.00
2013-6-25,85.1,69.1,54.3,59.6,53.9,48.1,80,61,40,30.05,29.98,0,0,0,0.00
2013-6-26,95.5,77.6,60.4,62.9,56.2,50.8,72,51,30,30.09,30.01,0,0,0,0.00
2013-6-27,99.5,80.8,62.8,61.3,56.4,52.4,70,47,24,30.13,30.07,0,0,0,0.00
2013-6-28,100.2,81.7,63.5,60.8,54.5,48.6,62,42,19,30.11,30.00,0,0,0,0.00
2013-6-29,104.5,83.5,64.4,61.2,53.5,46.0,58,39,16,30.02,29.91,0,0,0,0.00
2013-6-30,108.5,86.5,69.6,62.7,55.6,48.0,57,39,16,29.96,29.87,0,0,0,0.00
2013-7-1,98.2,83.6,70.0,60.9,56.5,50.8,61,41,25,30.02,29.93,0,0,0,0.00
2013-7-2,100.2,80.6,67.5,61.9,55.3,49.4,63,44,24,30.08,29.99,0,0,0,0.00
2013-7-3,97.5,79.8,67.3,59.0,53.6,47.8,63,42,25,30.03,29.92,0,0,0,0.00
2013-7-4,97.7,79.5,63.9,59.3,52.5,42.8,61,42,23,29.94,29.86,0,0,0,0.00
2013-7-5,93.0,76.0,61.0,62.6,54.1,47.9,67,49,28,29.94,29.87,0,0,0,0.00
2013-7-6,93.0,75.1,59.5,62.2,56.4,51.8,77,55,27,29.92,29.85,0,0,0,0.00
2013-7-7,96.1,77.6,59.5,60.8,54.7,45.9,77,50,19,29.96,29.87,0,0,0,0.00
2013-7-8,101.5,81.0,62.4,56.5,50.7,43.7,60,39,15,30.05,29.96,0,0,0,0.00
2013-7-9,101.8,83.1,67.1,63.4,51.7,43.0,53,36,18,30.09,30.02,0,0,0,0.00
2013-7-10,88.5,77.8,70.0,62.0,57.4,54.2,59,50,38,30.07,30.00,0,0,0,0.00
2013-7-11,83.7,72.5,66.7,59.5,56.8,53.0,70,58,43,30.07,29.98,0,0,0,0.00
2013-7-12,93.0,70.7,62.8,62.4,57.9,54.6,78,66,34,30.02,29.95,0,0,0,0.00
2013-7-13,94.5,77.2,60.4,58.5,54.6,51.2,73,49,26,30.04,29.95,0,0,0,0.00
2013-7-14,96.4,79.2,65.8,59.1,54.8,51.0,63,46,24,30.02,29.93,0,0,0,0.00
2013-7-15,94.8,77.8,63.1,60.2,52.4,47.4,65,44,24,29.96,29.92,0,0,0,0.00
2013-7-16,94.1,74.8,57.9,49.2,43.9,31.8,62,38,12,30.08,29.94,0,0,0,0.00
2013-7-17,95.4,75.1,55.2,46.8,39.6,28.3,58,33,10,30.10,30.03,0,0,0,0.00
2013-7-18,96.4,75.8,58.8,54.1,44.2,35.0,57,36,13,30.08,29.97,0,0,0,0.00
2013-7-19,96.3,77.4,62.2,59.4,53.3,46.8,62,45,26,29.99,29.92,0,0,0,0.00
2013-7-20,84.4,71.4,62.4,66.4,58.1,51.6,79,64,47,29.97,29.89,0,0,0,0.00
2013-7-21,79.3,70.8,65.1,64.8,60.9,56.6,80,71,58,30.02,29.89,0,0,0,0.00
2013-7-22,90.5,74.6,64.0,65.3,60.7,55.3,82,64,42,30.06,29.99,0,0,0,0.00
2013-7-23,90.0,74.6,61.3,62.5,57.6,54.2,79,58,33,30.10,30.01,0,0,0,0.00
2013-7-24,92.7,75.2,62.1,62.6,57.1,53.1,76,56,35,30.06,29.98,0,0,0,0.00
2013-7-25,96.1,77.2,61.0,63.0,56.6,52.6,74,52,29,30.09,30.00,0,0,0,0.00
2013-7-26,85.8,75.4,65.1,62.9,58.5,54.6,70,57,44,30.16,30.06,0,0,0,0.00
2013-7-27,93.0,77.7,63.9,63.5,58.2,53.8,73,53,32,30.09,29.97,0,0,0,0.00
2013-7-28,91.0,73.2,58.8,60.7,54.6,50.3,78,55,29,29.99,29.93,0,0,0,0.00
2013-7-29,89.8,71.4,54.0,56.9,51.5,46.5,78,54,27,30.09,29.98,0,0,0,0.00
2013-7-30,89.4,71.7,56.1,58.3,53.0,48.3,78,55,29,30.17,30.08,0,0,0,0.00
2013-7-31,90.1,70.1,55.6,59.3,53.1,48.1,77,58,33,30.15,30.03,0,0,0,0.00
2013-8-1,87.1,67.6,51.1,54.3,49.7,44.8,80,57,25,30.08,29.97,0,0,0,0.00
2013-8-2,89.8,69.3,53.2,57.5,50.7,45.3,76,54,31,30.04,29.97,0,0,0,0.00
2013-8-3,89.8,69.5,51.4,56.4,50.6,44.1,77,55,26,30.06,29.99,0,0,0,0.00
2013-8-4,91.4,71.8,55.2,55.1,49.7,41.3,75,50,18,30.07,30.00,0,0,0,0.00
2013-8-5,93.4,73.1,54.1,52.3,46.9,38.2,68,44,16,30.07,30.00,0,0,0,0.00
2013-8-6,91.6,71.3,53.2,50.4,45.0,34.8,71,44,15,30.09,30.02,0,0,0,0.00
2013-8-7,89.2,70.3,53.2,52.8,44.3,31.4,65,44,14,30.13,30.04,0,0,0,0.00
2013-8-8,90.3,71.0,52.3,47.5,41.4,33.0,62,38,14,30.07,29.98,0,0,0,0.00
2013-8-9,87.6,68.6,51.6,53.3,46.7,41.5,70,49,25,30.04,29.96,0,0,0,0.00
2013-8-10,85.5,67.4,50.9,51.3,47.0,40.5,74,52,21,30.08,30.02,0,0,0,0.00
2013-8-11,90.5,70.5,52.5,53.9,48.8,43.8,74,50,21,30.05,29.97,0,0,0,0.00
2013-8-12,92.5,72.5,55.0,55.6,49.4,41.6,69,48,18,30.04,29.98,0,0,0,0.00
2013-8-13,95.0,74.9,55.9,57.2,51.3,44.0,71,48,23,30.05,29.97,0,0,0,0.00
2013-8-14,101.1,79.7,61.0,59.1,49.8,39.3,66,41,13,30.01,29.93,0,0,0,0.00
2013-8-15,100.0,80.7,65.3,55.1,49.8,43.4,65,37,19,30.04,29.98,0,0,0,0.00
2013-8-16,97.5,79.7,64.2,57.4,52.1,48.6,59,41,21,30.07,30.01,0,0,0,0.00
2013-8-17,98.8,79.9,63.3,56.4,52.8,50.0,64,42,21,30.06,29.93,0,0,0,0.00
2013-8-18,100.8,81.3,66.2,61.6,54.0,50.3,58,42,24,29.99,29.92,0,0,0,0.00
2013-8-19,93.9,79.2,67.1,63.3,57.8,53.3,63,49,33,30.02,29.95,0,0,0,0.00
2013-8-20,96.8,78.4,62.8,60.1,53.8,49.1,72,46,20,30.02,29.94,0,0,0,0.00
2013-8-21,99.7,79.6,61.9,54.4,48.9,43.2,60,38,17,30.02,29.94,0,0,0,0.00
2013-8-22,99.3,80.5,64.9,53.8,47.4,42.1,55,35,18,30.03,29.93,0,0,0,0.00
2013-8-23,99.0,79.3,62.6,51.7,46.7,39.8,55,35,17,29.98,29.86,0,0,0,0.00
2013-8-24,99.1,78.1,60.8,63.5,50.3,29.9,55,40,10,29.99,29.87,0,0,0,0.00
2013-8-25,96.6,77.6,64.8,64.5,56.7,51.3,63,50,31,30.04,29.95,0,0,0,0.00
2013-8-26,83.8,75.5,68.9,64.1,58.9,53.7,63,57,47,30.04,29.95,0,0,0,0.00
2013-8-27,96.6,79.3,66.6,65.1,58.8,53.4,68,51,33,29.97,29.88,0,0,0,0.00
2013-8-28,97.9,80.6,66.0,61.9,57.3,53.0,67,47,30,30.03,29.90,0,0,0,0.00
2013-8-29,98.4,81.1,68.5,69.4,61.4,54.0,63,52,34,30.09,30.00,0,0,0,0.00
2013-8-30,91.6,78.3,71.4,67.2,64.2,60.1,80,63,44,30.11,30.04,0,0,0,0.00
2013-8-31,90.7,78.6,70.0,68.2,65.0,61.3,83,65,45,30.09,29.99,0,0,0,0.00
2013-9-1,93.4,77.5,68.4,65.5,62.1,58.5,78,61,36,30.05,29.96,0,0,0,0.00
2013-9-2,95.7,78.3,63.5,64.8,59.9,55.8,77,56,33,30.02,29.93,0,0,0,0.00
2013-9-3,97.9,82.1,68.7,63.2,59.5,56.8,68,49,29,30.02,29.95,0,0,0,0.00
2013-9-4,100.0,82.1,68.2,66.2,58.6,55.4,65,47,28,30.04,29.96,0,0,0,0.00
2013-9-5,100.8,83.2,69.8,62.9,57.6,54.0,61,44,25,30.02,29.96,0,0,0,0.00
2013-9-6,100.8,82.4,69.8,59.2,55.2,51.8,60,42,23,30.01,29.93,0,0,0,0.00
2013-9-7,97.7,77.2,68.5,67.5,58.8,52.0,79,55,30,30.00,29.94,0,0,0,0.00
2013-9-8,93.9,77.5,63.1,62.5,55.2,45.7,76,51,21,29.97,29.86,0,0,0,0.00
2013-9-9,91.0,76.4,64.6,58.7,53.6,49.5,64,47,25,29.91,29.83,0,0,0,0.00
2013-9-10,88.5,72.0,59.4,58.8,52.2,47.8,70,52,29,30.01,29.89,0,0,0,0.00
2013-9-11,87.1,69.7,54.9,58.6,51.9,46.2,77,56,30,30.05,29.99,0,0,0,0.00
2013-9-12,92.3,73.0,56.8,51.5,47.1,38.3,71,44,16,30.02,29.92,0,0,0,0.00
2013-9-13,94.6,75.1,58.8,53.2,45.8,38.3,56,39,15,29.94,29.80,0,0,0,0.00
2013-9-14,97.7,78.2,62.2,55.0,50.2,46.3,58,41,19,29.85,29.77,0,0,0,0.00
2013-9-15,98.8,79.3,63.5,56.6,51.3,46.5,59,41,18,29.91,29.82,0,0,0,0.00
2013-9-16,99.3,78.3,63.3,53.2,48.7,45.2,57,39,17,29.94,29.85,0,0,0,0.00
2013-9-17,90.9,72.8,58.6,51.2,45.6,40.5,66,41,19,29.91,29.81,0,0,0,0.00
2013-9-18,83.8,66.4,51.1,55.1,47.9,41.3,71,54,29,29.88,29.81,0,0,0,0.00
2013-9-19,88.0,68.7,53.2,57.5,51.2,45.3,76,57,28,29.91,29.83,0,0,0,0.00
2013-9-20,82.0,65.2,54.5,59.1,53.8,48.6,82,68,45,29.95,29.89,0,0,0,0.00
2013-9-21,79.0,65.0,52.3,55.2,51.5,44.7,79,64,37,29.96,29.86,0,0,0,0.00
2013-9-22,76.8,63.1,54.0,51.3,48.2,43.6,80,61,35,29.92,29.85,0,0,0,0.00
2013-9-23,91.2,70.0,50.9,47.2,40.6,35.0,73,41,15,30.00,29.89,0,0,0,0.00
2013-9-24,89.1,69.9,54.9,48.3,40.9,35.7,57,38,16,30.03,29.93,0,0,0,0.00
2013-9-25,82.2,64.1,50.7,48.7,42.0,33.2,72,47,24,29.95,29.78,0,0,0,0.00
2013-9-26,71.2,58.5,48.2,48.3,43.3,35.7,74,59,28,29.95,29.79,0,0,0,0.00
2013-9-27,81.5,61.0,43.3,37.4,30.8,24.5,70,39,14,30.08,29.94,0,0,0,0.00
2013-9-28,86.2,66.4,50.4,33.8,26.9,21.7,41,26,10,30.13,30.04,0,0,0,0.00
2013-9-29,86.9,67.7,52.3,38.7,31.1,22.9,48,29,10,30.14,30.04,0,0,0,0.00
2013-9-30,87.6,67.0,50.2,48.3,36.2,27.8,55,36,15,30.08,29.94,0,0,0,0.00
2013-10-1,86.4,67.5,52.3,49.9,41.5,36.5,59,43,19,30.02,29.94,0,0,0,0.00
2013-10-2,80.1,63.2,48.9,54.0,47.0,37.8,75,57,30,30.03,29.94,0,0,0,0.00
2013-10-3,73.4,62.4,54.7,51.8,49.7,47.2,76,64,41,29.99,29.87,0,0,0,0.00
2013-10-4,82.0,60.7,47.1,47.6,31.3,16.7,80,44,11,30.15,29.94,0,0,0,0.00
2013-10-5,84.4,63.4,46.0,30.4,21.4,15.1,39,22,10,30.22,30.14,0,0,0,0.00
2013-10-6,88.3,66.4,49.6,33.5,21.9,15.2,35,20,10,30.19,30.05,0,0,0,0.00
2013-10-7,86.5,66.9,53.4,40.0,28.5,20.4,51,27,10,30.07,29.96,0,0,0,0.00
2013-10-8,78.4,60.9,47.8,49.9,37.9,26.1,68,47,17,30.00,29.87,0,0,0,0.00
2013-10-9,58.6,51.3,44.1,44.7,42.2,38.6,81,71,53,29.88,29.76,0,0,0,0.00
2013-10-10,63.9,49.7,38.8,44.5,39.0,33.8,83,68,45,30.05,29.85,0,0,0,0.00
2013-10-11,74.7,56.5,42.1,47.3,40.5,36.3,80,59,29,30.08,29.99,0,0,0,0.00
2013-10-12,76.5,59.4,46.0,46.8,42.0,37.9,74,56,28,30.03,29.95,0,0,0,0.00
2013-10-13,72.5,56.0,43.3,49.4,43.0,36.2,78,64,41,30.07,29.97,0,0,0,0.00
2013-10-14,79.9,60.5,43.9,40.5,35.3,31.0,79,45,18,30.09,29.99,0,0,0,0.00
2013-10-15,81.1,62.3,48.0,39.9,32.3,25.3,54,36,16,30.07,29.96,0,0,0,0.00
2013-10-16,80.1,61.1,47.8,35.2,28.4,19.8,49,32,12,30.16,30.05,0,0,0,0.00
2013-10-17,80.2,61.3,46.6,39.3,31.1,26.0,57,36,15,30.11,29.99,0,0,0,0.00
2013-10-18,84.4,63.4,46.6,42.0,33.3,26.4,59,38,14,30.08,30.01,0,0,0,0.00
2013-10-19,86.9,66.0,52.3,42.2,29.8,19.2,50,30,10,30.11,30.03,0,0,0,0.00
2013-10-20,82.9,62.9,48.9,43.9,34.4,28.1,58,38,15,30.06,29.96,0,0,0,0.00
2013-10-21,84.0,62.7,47.3,43.7,35.3,29.5,59,40,15,30.05,29.98,0,0,0,0.00
2013-10-22,88.3,66.1,51.8,45.6,33.9,24.7,53,34,10,30.07,29.96,0,0,0,0.00
2013-10-23,71.4,58.8,47.8,51.4,42.1,28.7,78,55,36,30.01,29.95,0,0,0,0.00
2013-10-24,68.7,56.7,48.6,50.9,46.5,41.6,79,70,52,30.09,29.99,0,0,0,0.00
2013-10-25,80.4,59.7,43.2,53.0,43.1,35.5,81,58,30,30.15,30.08,0,0,0,0.00
2013-10-26,89.2,68.3,53.4,44.0,35.2,31.0,46,32,15,30.16,30.04,0,0,0,0.00
2013-10-27,82.4,64.5,53.2,47.0,37.7,31.6,73,40,19,30.06,29.86,0,0,0,0.00
2013-10-28,61.0,52.3,44.8,49.3,43.5,38.7,79,72,53,29.97,29.87,0,0,0,0.00
2013-10-29,61.0,49.5,40.3,43.4,39.5,35.0,82,70,49,30.04,29.95,0,0,0,0.00
2013-10-30,69.1,53.6,40.8,44.5,39.0,33.8,81,61,32,30.09,30.02,0,0,0,0.00
2013-10-31,76.6,56.7,43.0,39.5,31.6,25.6,67,43,17,30.15,30.06,0,0,0,0.00
2013-11-1,81.7,61.2,47.1,37.1,31.3,28.2,50,36,16,30.17,30.04,0,0,0,0.00
2013-11-2,79.7,60.2,46.6,37.8,31.6,24.3,58,38,14,30.09,29.93,0,0,0,0.00
2013-11-3,68.7,54.2,42.3,46.4,39.5,30.8,75,59,38,29.97,29.87,0,0,0,0.00
2013-11-4,60.3,53.4,48.9,46.1,44.1,41.2,78,71,59,29.99,29.84,0,0,0,0.00
2013-11-5,70.5,53.5,41.9,41.6,27.1,13.8,80,43,13,30.20,29.98,0,0,0,0.00
2013-11-6,76.8,57.5,42.1,25.8,18.9,10.2,44,25,10,30.27,30.19,0,0,0,0.00
2013-11-7,81.5,61.7,48.7,37.4,23.4,16.3,42,26,10,30.21,30.09,0,0,0,0.00
2013-11-8,80.1,61.2,48.7,33.5,24.2,17.4,45,27,10,30.10,30.01,0,0,0,0.00
2013-11-9,79.0,59.0,44.8,34.0,25.3,15.2,52,31,10,30.14,30.05,0,0,0,0.00
2013-11-10,77.2,60.5,48.9,33.8,24.8,18.2,46,27,15,30.18,30.09,0,0,0,0.00
2013-11-11,81.0,62.0,48.9,36.8,29.7,22.9,49,32,15,30.18,30.09,0,0,0,0.00
2013-11-12,78.6,64.3,51.3,40.5,33.6,26.5,49,33,16,30.24,30.16,0,0,0,0.00
2013-11-13,86.5,66.2,53.2,40.6,32.2,29.7,46,31,14,30.16,30.01,0,0,0,0.00
2013-11-14,85.3,65.4,52.3,38.8,30.2,26.7,44,30,13,30.05,29.85,0,0,0,0.00
2013-11-15,62.2,54.3,46.6,46.8,41.6,32.3,73,63,43,29.85,29.74,0,0,0,0.00
2013-11-16,53.8,51.2,48.7,46.7,44.5,42.1,81,78,73,29.98,29.81,0,0,0,0.00
2013-11-17,65.1,51.4,41.7,46.5,41.1,36.2,82,69,47,30.12,29.98,0,0,0,0.00
2013-11-18,66.0,51.9,41.2,47.6,41.5,35.1,80,69,48,30.18,30.08,0,0,0,0.00
2013-11-19,57.0,52.3,48.7,46.7,44.0,41.1,80,74,63,30.12,29.99,0,0,0,0.00
2013-11-20,56.5,52.5,48.2,47.0,44.7,41.2,81,75,65,30.01,29.94,0,0,0,0.00
2013-11-21,55.8,51.7,47.8,50.3,46.2,42.9,83,82,79,29.94,29.89,0,0,0,0.00
2013-11-22,53.6,44.7,38.5,42.9,38.3,33.5,84,79,56,29.99,29.88,0,0,0,0.00
2013-11-23,57.9,45.2,36.1,41.4,35.9,31.4,84,71,51,30.11,29.98,0,0,0,0.00
2013-11-24,61.3,47.1,37.6,39.4,35.4,31.8,81,66,41,30.21,30.11,0,0,0,0.00
2013-11-25,68.5,50.8,39.0,39.5,35.2,32.1,76,58,29,30.27,30.19,0,0,0,0.00
2013-11-26,73.0,54.9,44.1,38.8,34.1,31.1,65,48,25,30.25,30.12,0,0,0,0.00
2013-11-27,69.3,54.8,43.9,38.8,33.5,29.9,59,46,27,30.12,29.95,0,0,0,0.00
2013-11-28,65.3,51.7,41.7,37.1,32.3,29.6,63,49,31,30.11,29.94,0,0,0,0.00
2013-11-29,60.6,50.9,43.5,48.9,39.4,31.3,80,66,37,30.22,30.09,0,0,0,0.00
2013-11-30,70.3,55.4,44.6,46.3,40.9,34.7,78,61,35,30.22,30.12,0,0,0,0.00
2013-12-1,72.7,59.5,49.6,38.9,33.9,30.3,51,40,24,30.28,30.17,4,0,4,0.00
2013-12-2,55.4,48.5,44.8,31.0,29.8,28.2,57,49,39,30.16,29.94,0,0,0,0.00
2013-12-3,64.2,51.6,41.5,44.6,36.5,27.8,76,58,29,29.95,29.76,0,0,0,0.00
2013-12-4,55.9,46.3,37.0,42.9,31.5,20.1,78,59,27,29.95,29.76,0,0,0,0.00
2013-12-5,54.5,42.0,34.2,34.2,30.5,25.6,78,65,36,30.07,29.92,0,0,0,0.00
2013-12-6,53.8,42.4,33.3,35.8,31.1,26.8,77,65,45,30.14,30.06,0,0,0,0.00
2013-12-7,45.5,41.2,36.3,40.4,34.6,29.0,83,77,69,30.09,29.98,0,0,0,0.00
2013-12-8,50.9,39.2,32.7,36.8,31.1,25.5,84,73,52,30.15,30.05,0,0,0,0.00
2013-12-9,54.7,37.5,27.7,25.8,18.8,7.3,79,52,19,30.27,30.14,0,0,0,0.00
2013-12-10,60.6,41.2,26.2,22.2,16.4,9.2,63,42,14,30.24,30.09,0,0,0,0.00
2013-12-11,66.2,48.0,34.0,25.8,19.3,13.6,51,35,14,30.18,30.10,0,0,0,0.00
2013-12-12,67.3,49.2,38.1,29.8,23.9,19.9,62,40,19,30.21,30.11,0,0,0,0.00
2013-12-13,61.9,46.5,34.7,34.1,28.3,24.8,67,51,30,30.22,30.12,0,0,0,0.00
2013-12-14,69.3,50.0,39.0,29.2,22.9,18.4,54,37,18,30.30,30.19,0,0,0,0.00
2013-12-15,73.9,53.2,39.7,31.9,24.1,19.1,47,34,14,30.27,30.14,0,0,0,0.00
2013-12-16,80.8,59.9,47.8,37.3,29.6,25.8,44,34,15,30.20,30.13,0,0,0,0.00
2013-12-17,81.3,62.0,51.1,43.4,32.1,28.9,50,34,16,30.19,30.04,0,0,0,0.00
2013-12-18,72.1,57.4,44.4,39.4,32.1,27.8,72,40,21,30.04,29.87,0,0,0,0.00
2013-12-19,48.6,45.7,38.7,41.6,38.6,33.4,81,76,70,29.87,29.72,0,0,0,0.00
2013-12-20,58.3,43.5,33.6,38.6,32.0,27.9,83,66,40,29.94,29.75,0,0,0,0.00
2013-12-21,56.8,44.1,37.2,41.3,35.1,30.7,81,71,51,30.06,29.91,0,0,0,0.00
2013-12-22,66.9,48.7,34.9,39.6,33.4,29.0,79,59,33,30.27,30.06,0,0,0,0.00
2013-12-23,69.4,53.8,43.3,36.7,32.9,30.1,60,47,27,30.32,30.24,0,0,0,0.00
2013-12-24,74.8,60.4,45.1,38.3,31.6,28.5,53,36,19,30.23,30.13,0,0,0,0.00
2013-12-25,72.3,54.1,44.4,34.0,26.2,20.9,53,36,18,30.27,30.16,0,0,0,0.00
2013-12-26,73.0,56.2,42.1,28.8,18.3,13.5,40,25,11,30.22,30.12,0,0,0,0.00
2013-12-27,76.6,57.2,44.1,26.0,17.0,11.1,34,22,10,30.19,30.09,0,0,0,0.00
2013-12-28,72.3,55.7,43.2,29.2,20.3,15.3,37,27,12,30.09,29.95,0,0,0,0.00
2013-12-29,69.1,52.4,41.7,24.6,15.6,10.8,37,25,12,30.17,30.01,0,0,0,0.00
2013-12-30,71.1,50.8,39.4,24.2,13.8,6.7,35,24,10,30.26,30.16,0,0,0,0.00
2013-12-31,71.6,53.4,42.4,25.2,18.0,14.6,36,26,12,30.20,30.09,0,0,0,0.00
2014-1-1,76.3,56.2,41.5,28.7,21.3,16.0,40,28,11,30.14,30.08,0,0,0,0.00
2014-1-2,76.1,57.5,45.7,34.5,26.1,22.7,44,32,17,30.14,30.04,0,0,0,0.00